Home   Weather   Bünde   Past weeks

Flag for Germany Past Weather in Bünde, North Rhine-Westphalia, Germany — Yesterday and Last 2 Weeks

46 °F

Drizzle. Fog.

Feels Like: 44 °F
Forecast: 37 / 51 °F
Wind: 5 mph from Northeast

Location: Bueckeburg

Current Time: Oct 25, 2016 at 10:35:03 AM

Latest Report: Oct 25, 2016 at 9:47 AM

Visibility: 2 mi

Pressure: 30.12 "Hg

Humidity: 100%

Dew Point: 46 °F

Location of BündeLocation

Past Weather in Bünde — Graph


Bünde Temperature Yesterday

Maximum temperature yesterday: 46 °F (at 12:20 PM)
Minimum temperature yesterday: 37 °F (at 2:20 AM)
Average temperature yesterday: 42 °F

High & Low Weather Summary for the Past Weeks

High63 °F (Oct 16, 3:20 PM)100% (Oct 10, 9:20 AM)30.24 "Hg (Oct 10, 9:20 AM)
Low34 °F (Oct 23, 8:20 AM)59% (Oct 16, 3:20 PM)29.71 "Hg (Oct 15, 5:20 AM)
Average47 °F91%30.02 "Hg
* Reported Oct 10 9:20 AM — Oct 25 9:20 AM, Bünde, Weather by CustomWeather, © 2016

Note: Actual official high and low records may vary slightly from our data, if they occured in-between our weather recording intervals... More about our weather records


Bünde Weather History for the Previous 24 Hours

Scroll right to see more
Time TempWeatherWind HumidityBarometerVisibility
9:20 AM
Tue, Oct 25
46 °FDrizzle. Fog.5 mph100%30.12 "Hg1 mi
8:20 AM46 °FDrizzle. Fog.6 mph100%30.09 "Hg1 mi
7:20 AM46 °FDrizzle. Fog.6 mph100%30.07 "Hg1 mi
6:20 AM46 °FDrizzle. Fog.2 mph100%30.07 "Hg1 mi
5:20 AM46 °FCool.2 mph100%30.04 "Hg1 mi
4:20 AM46 °FCool.3 mph93%30.04 "Hg2 mi
3:20 AM46 °FCool.6 mph93%30.01 "Hg2 mi
2:20 AM46 °FCool.6 mph93%30.01 "Hg3 mi
1:20 AM45 °FQuite cool.5 mph100%30.01 "Hg3 mi
12:20 AM45 °FQuite cool.5 mph100%30.01 "Hg2 mi
11:20 PM
Mon, Oct 24
45 °FQuite cool.7 mph100%29.98 "Hg3 mi
10:20 PM45 °FQuite cool.5 mph100%29.98 "Hg3 mi
9:20 PM45 °FDrizzle. Fog.3 mph100%29.98 "Hg3 mi
8:20 PM45 °FDrizzle. Fog.3 mph100%29.98 "Hg2 mi
7:20 PM45 °FDrizzle. Fog.7 mph100%29.98 "Hg2 mi
6:20 PM45 °FRain. Fog.10 mph100%29.98 "Hg1 mi
5:20 PM45 °FLight rain. Fog.8 mph100%29.98 "Hg1 mi
4:20 PM45 °FDrizzle. Fog.10 mph100%29.95 "Hg2 mi
4:03 PM45 °FDrizzle. Fog.9 mph100%29.95 "Hg2 mi
3:20 PM46 °FLight rain. Fog.9 mph93%29.95 "Hg2 mi
2:20 PM46 °FPartly sunny.8 mph93%29.95 "Hg4 mi
1:49 PM46 °FFog.7 mph93%29.95 "Hg3 mi
1:20 PM46 °FFog.8 mph93%29.95 "Hg3 mi
12:20 PM46 °FFog.6 mph93%29.98 "Hg2 mi
11:20 AM45 °FFog.5 mph100%29.98 "Hg2 mi
10:20 AM43 °FFog.3 mph100%30.01 "Hg2 mi
Weather by CustomWeather, © 2016

See weather overviewHow to use our weather pages